Hourly Data Report for October 04, 2014

All times are specified in Local Standard Time (LST). Add 1 hour to adjust for Daylight Saving Time where and when it is observed.

PANGNIRTUNG
NUNAVUT

66°08'36.300" N
65°42'40.500" W
22.60 m
2403049
71826
WXP

Download Data

Hourly Data (October 2014)
Hourly Data Report for October 4, 2014
Temp Definition
°C
Dew Point Temp Definition
°C
Rel Hum Definition
%
Wind Dir Definition
10's deg

Wind Spd Definition
km/h
Visibility Definition
km
Stn Press Definition
kPa
Hmdx Definition


Wind Chill Definition


Weather Definition


TIME
00:00 -4.9 -11.8 58 12 3   101.02   -6 LegendNANA
01:00 -5.1 -12.2 57 19 3   101.04   -6 LegendNANA
02:00 -5.5 -12.3 58 8 2   101.06   -6 LegendNANA
03:00 -5.0 -12.0 58 12 5   101.11   -7 LegendNANA
04:00 -4.9 -12.6 55 0 1   101.09   -5 LegendNANA
05:00 -5.4 -12.2 59 12 4   101.15   -7 LegendNANA
06:00 -5.2 -11.7 60 10 7   101.20   -8 LegendNANA
07:00 -4.4 -11.6 57 10 7   101.23   -8 LegendNANA
08:00 -4.6 -11.5 58 4 2   101.25   -5 LegendNANA
09:00 -3.9 -11.4 56 13 3   101.29   -5 LegendNANA
10:00 -3.4 -10.4 58 12 3   101.31   -5 LegendNANA
11:00 -3.0 -10.5 56 10 1   101.32   -3 LegendNANA
12:00 -2.4 -10.5 54 12 4   101.35   -4 LegendNANA
13:00 -1.7 -10.2 52 10 5   101.39   -4 LegendNANA
14:00 -1.0 -8.4 57 10 9   101.41   -4 LegendNANA
15:00 -1.1 -8.6 57 13 9   101.43   -4 LegendNANA
16:00 -1.3 -9.4 54 13 9   101.49   -5 LegendNANA
17:00 -1.6 -9.5 55 13 15   101.57   -6 LegendNANA
18:00 -2.0 -9.5 57 11 13   101.66   -6 LegendNANA
19:00 -1.1 -9.3 54 12 16   101.69   -6 LegendNANA
20:00 -2.6 -9.5 59 11 17   101.75   -8 LegendNANA
21:00 -2.5 -9.5 58 13 15   101.78   -7 LegendNANA
22:00 -1.8 -9.2 57 12 11   101.77   -6 LegendNANA
23:00 -1.4 -9.2 55 14 25   101.81   -8 LegendNANA

Notes on Data Quality.

Legend

  • E = Estimated
  • M = Missing
  • NA = Not Available
  • ‡ = Partner data that is not subject to review by the National Climate Archives
Date modified: